TJS-2

Last updated on Sat Jul 05 2025 00:02:46 GMT+0000 (Coordinated Universal Time)

1 41911U 17001A 25185.50724829 .00000007 00000+0 00000+0 0 9998 2 41911 0.0741 258.4238 0001464 218.7247 54.7612 1.00274935 31233
UTC large
Height (km)
Speed (km/s)
/
Latitude / Longitude
Inclination (degrees)
Orbital Period (minutes)
Azimuth
Elevation
Range (km)
Doppler Factor

Next 0 passes for location: London (51.5072 / 0.1276)

Sorry there are no passes over London.